Regional Weather Roundup
Issued by NWS Jackson, KY

Home | Current Version | Previous Version | Text Only | Print | Product List | Glossary Off
Versions: 1 2 3 4 5 6 7 8 9 10 11 12 13 14 15 16 17 18 19 20 21 22 23 24 25 26 27 28 29 30 31 32 33 34 35 36 37 38 39 40 41 42 43 44 45 46 47 48 49 50

000
ASUS43 KJKL 051010
RWRJKL

EAST KENTUCKY HOURLY WEATHER ROUNDUP
NATIONAL WEATHER SERVICE JACKSON KY
500 AM EST MON DEC 05 2016

NOTE: "FAIR" INDICATES FEW OR NO CLOUDS BELOW 12,000 FEET WITH
NO SIGNIFICANT WEATHER AND/OR OBSTRUCTIONS TO VISIBILITY.

* THESE REPORTS ARE NOT UNDER NWS QUALITY CONTROL AND MAY NOT
  REPORT WEATHER SUCH AS PRECIPITATION AND FOG.

KYZ079-080-083-085-087-088-110-112-115-119-120-051100
...EASTERN KENTUCKY...

CITY           SKY/WX    TMP DP  RH WIND       PRES   REMARKS
JACKSON        CLOUDY    44  41  89 NW6       30.04R
LONDON         CLOUDY    44  41  89 NW6       30.04S
SOMERSET*      CLOUDY    43  41  93 W3        30.07R
MONTICELLO*    CLOUDY    44  43  96 N10       30.07R
WILLIAMSBURG*  CLOUDY    43  43 100 NW5       30.04S
MIDDLESBORO*   CLOUDY    46  46 100 CALM      30.03S FOG
HARLAN APT*    CLOUDY    45  43  93 SW3       30.03R
PIKE CO APT*   CLOUDY    45  45  99 W3        30.02R
MOREHEAD APT*  CLOUDY    43  39  87 W5        30.07R
ASHLAND*       CLOUDY    46  39  76 W7        30.02R
$$

KYZ035-036-041-042-044-050-067-078-099-051100
...CENTRAL KENTUCKY...

CITY           SKY/WX    TMP DP  RH WIND       PRES   REMARKS
MT STERLING*   CLOUDY    41  37  87 W7        30.07R
FLEMING/MASON* CLOUDY    41  37  87 W8        30.06R
DANVILLE*      CLOUDY    39  37  93 NW5       30.07S
LEXINGTON      CLOUDY    41  36  82 W7        30.07R
FRANKFORT      CLOUDY    41  36  82 NW5       30.06R
LOUISVILLE     CLOUDY    40  32  73 NW8       30.08R WCI  34
LEBANON*       CLOUDY    39  36  87 NW7       30.07S WCI  34
GLASGOW*       CLOUDY    40  40 100 N5        30.07S
BOWLING GREEN    N/A     41  36  82 N7        30.08S
$$

KYZ091>093-OHZ055-061-077-WVZ005-015-034-035-042-051100
...SOUTHERN OHIO/WEST VIRGINIA...

CITY           SKY/WX    TMP DP  RH WIND       PRES   REMARKS
COVINGTON      CLOUDY    38  34  85 NW8       30.05R WCI  32
COLUMBUS       CLOUDY    37  35  92 W18       30.02R WCI  27
DAYTON         CLOUDY    34  30  85 W10       30.04R WCI  26
WILMINGTON     CLOUDY    37  33  85 W10       30.04R WCI  30
HUNTINGTON     CLOUDY    46  40  79 SW7       30.03R
CHARLESTON     CLOUDY    47  41  80 W6        30.01R
PINEVILLE*     CLOUDY    46  43  90 MISG      30.05R
BECKLEY        CLOUDY    43  41  93 NW8       29.99R
BLUEFIELD      CLOUDY    42  41  96 NW8       29.98S FOG
$$

VAZ002-007-008-TNZ017-027-036-066-071-051100
...SOUTHWEST VIRGINIA/EAST TENNESSEE...

CITY           SKY/WX    TMP DP  RH WIND       PRES   REMARKS
WISE*          FOG       43  43 100 CALM      30.02R VSB 1
JONESVILLE*    FOG       45  45 100 CALM      30.05R VSB 1
ABINGDON*      CLOUDY    46  46 100 W5        30.01S FOG
BRISTOL        CLOUDY    46  45  96 CALM      30.03R FOG
MORRISTOWN*    CLOUDY    45  45 100 SW3       30.01F FOG
SEVIERVILLE*   CLOUDY    45  43  93 CALM      30.02S
KNOXVILLE      DRIZZLE   46  45  96 CALM      30.02S FOG
OAK RIDGE      CLOUDY    48  45  89 CALM      30.03F
CROSSVILLE     CLOUDY    44  43  96 N5        30.01F FOG
NASHVILLE      CLOUDY    45  40  82 N7        30.05S
$$

...KEY TO REMARKS...
VSB - VISIBILITY IN MILES
WCI - WIND CHILL INDEX
HX  - HEAT INDEX

$$



USA.gov is the U.S. government's official web portal to all federal, state and local government web resources and services.